DW7314 Weather Reports


Display with metric or nautical units.
time (UTC)temp
F
wind
direction
speed
MPH
gust
MPH
rain 1hr
in
rain 24hr
in
rain mn
in
humidity
%
barometer
mb
20260504031041 57 286 0.0 0.0 0.00 0.00 0.00 81 1018.7
20260504030124 58 286 0.0 0.0 0.00 0.00 0.00 82 1018.7
20260504025049 58 286 0.0 0.0 0.00 0.00 0.00 80 1018.7
20260504024042 58 286 0.0 0.0 0.00 0.00 0.00 78 1018.7
20260504023053 59 286 0.0 0.0 0.00 0.00 0.00 77 1018.5
20260504022049 59 286 0.0 0.0 0.00 0.00 0.00 76 1018.3
20260504021041 60 286 0.0 0.0 0.00 0.00 0.00 76 1018.2
20260504020126 61 286 0.0 0.0 0.00 0.00 0.00 73 1018.1
20260504015053 62 286 0.0 0.0 0.00 0.00 0.00 72 1017.9
20260504014106 63 286 0.0 0.0 0.00 0.00 0.00 72 1017.9
20260504013058 63 286 0.0 0.0 0.00 0.00 0.00 68 1017.7
20260504012052 64 286 0.0 0.0 0.00 0.00 0.00 67 1017.6
20260504011045 65 286 0.0 0.0 0.00 0.00 0.00 67 1017.6
20260504010109 66 286 0.0 0.0 0.00 0.00 0.00 59 1017.5
20260504005112 66 286 0.0 0.0 0.00 0.00 0.00 56 1017.4
20260504004045 67 286 0.0 0.0 0.00 0.00 0.00 55 1017.4
20260504003038 68 286 0.0 0.0 0.00 0.00 0.00 55 1017.3
20260504002052 69 287 0.0 0.0 0.00 0.00 0.00 54 1017.1
20260504001048 69 287 0.0 0.0 0.00 0.00 0.00 53 1017.1
20260504000111 70 287 0.0 0.0 0.00 0.00 0.00 52 1017.0
20260503235053 71 287 0.0 0.0 0.00 0.00 0.00 51 1016.9
20260503234046 72 287 0.0 0.0 0.00 0.00 0.00 50 1016.9
20260503233039 72 287 0.0 0.0 0.00 0.00 0.00 47 1016.8
20260503232051 72 287 0.0 0.0 0.00 0.00 0.00 47 1016.8
20260503231044 73 287 0.0 0.0 0.00 0.00 0.00 47 1016.9
20260503230107 73 287 0.0 0.0 0.00 0.00 0.00 48 1016.9
20260503225052 73 287 0.0 0.0 0.00 0.00 0.00 47 1016.8
20260503224048 73 167 0.0 0.0 0.00 0.00 0.00 48 1016.9
20260503223043 74 167 0.0 0.0 0.00 0.00 0.00 48 1017.0
20260503222055 74 167 0.0 0.0 0.00 0.00 0.00 47 1017.0
20260503221050 75 167 0.0 0.0 0.00 0.00 0.00 46 1017.0
20260503220134 75 167 0.0 1.0 0.00 0.00 0.00 48 1017.0
20260503215057 75 167 0.0 1.0 0.00 0.00 0.00 47 1017.1
20260503214049 75 167 0.0 1.0 0.00 0.00 0.00 48 1017.3
20260503213042 75 167 0.0 1.0 0.00 0.00 0.00 47 1017.3
20260503212115 76 167 0.0 1.0 0.00 0.00 0.00 50 1017.3
20260503211047 76 167 0.0 1.0 0.00 0.00 0.00 43 1017.3
20260503210131 76 167 0.0 1.0 0.00 0.00 0.00 47 1017.4
20260503205059 76 272 0.0 1.0 0.00 0.00 0.00 47 1017.4
20260503204053 76 271 0.0 1.0 0.00 0.00 0.00 44 1017.4
20260503203045 76 271 0.0 1.0 0.00 0.00 0.00 45 1017.5
20260503202038 76 191 0.0 2.0 0.00 0.00 0.00 47 1017.5
20260503201049 76 89 0.0 1.0 0.00 0.00 0.00 46 1017.6
20260503200113 77 89 1.0 2.0 0.00 0.00 0.00 44 1017.6
20260503195038 77 89 0.0 1.0 0.00 0.00 0.00 46 1017.7
20260503194051 77 89 0.0 2.0 0.00 0.00 0.00 45 1018.1
20260503193104 78 200 0.0 1.0 0.00 0.00 0.00 41 1018.1
20260503192054 77 201 0.0 2.0 0.00 0.00 0.00 44 1018.3
20260503191108 77 237 0.0 1.0 0.00 0.00 0.00 41 1018.4
20260503190114 77 240 0.0 4.0 0.00 0.00 0.00 46 1018.4
20260503185037 76 249 1.0 4.0 0.00 0.00 0.00 40 1018.5
20260503184051 76 351 0.0 2.0 0.00 0.00 0.00 52 1018.7
20260503183039 76 213 0.0 4.0 0.00 0.00 0.00 47 1018.8
20260503182054 76 310 1.0 5.0 0.00 0.00 0.00 46 1019.0
20260503181047 75 147 0.0 2.0 0.00 0.00 0.00 45 1019.1
20260503180113 75 330 0.0 2.0 0.00 0.00 0.00 47 1019.1
20260503175055 74 61 0.0 2.0 0.00 0.00 0.00 47 1019.2
20260503174048 75 62 1.0 2.0 0.00 0.00 0.00 46 1019.4
20260503173045 74 49 0.0 2.0 0.00 0.00 0.00 50 1019.6
20260503172039 74 136 0.0 1.0 0.00 0.00 0.00 52 1019.7
20260503171051 74 136 0.0 2.0 0.00 0.00 0.00 49 1019.8
20260503170117 73 147 0.0 4.0 0.00 0.00 0.00 49 1020.0
20260503160136 69 40 0.0 2.0 0.00 0.02 0.00 57 1020.7
20260503150119 65 360 0.0 1.0 0.00 0.07 0.00 72 1020.5
20260503140120 58 126 0.0 1.0 0.00 0.08 0.00 89 1019.8
20260503131037 54 40 0.0 0.0 0.00 0.09 0.00 100 1020.0
20260503130121 53 40 0.0 0.0 0.00 0.09 0.00 100 1020.0
20260503120120 48 40 0.0 0.0 0.00 0.29 0.00 100 1019.4